Regional Weather Roundup
Issued by NWS Burlington, VT

Home | Current Version | Previous Version | Text Only | Print | Product List | Glossary On
Versions: 1 2 3 4 5 6 7 8 9 10 11 12 13 14 15 16 17 18 19 20 21 22 23 24 25 26 27 28 29 30 31 32 33 34 35 36 37 38 39 40 41 42 43 44 45 46 47 48 49 50
000
ASUS41 KBTV 241330
RWRBTV
VERMONT REGIONAL WEATHER ROUNDUP
NATIONAL WEATHER SERVICE BURLINGTON VT
900 AM EDT THU APR 24 2014

NOTE: "FAIR" INDICATES FEW OR NO CLOUDS BELOW 12,000 FEET WITH NO
SIGNIFICANT WEATHER AND/OR OBSTRUCTIONS TO VISIBILITY.

* THESE REPORTS ARE NOT UNDER NWS QUALITY CONTROL AND/OR DO NOT
  REPORT WEATHER SUCH AS PRECIPITATION AND FOG.

VTZ001>019-241400-
_____VERMONT_____


CITY           SKY/WX    TMP DP  RH WIND       PRES   REMARKS
BURLINGTON     PTSUNNY   38  20  48 NW21G29   29.91R
MONTPELIER     PTSUNNY   34  19  54 NW18G25   29.85R
MORRISVILLE    CLOUDY    35  20  54 NW15G24   29.85R
ST. JOHNSBURY*   N/A     36  21  54 MISG      29.77R
LYNDONVILLE*   CLOUDY    35  22  58 NW17G29   29.78R
MIDDLEBURY*    CLOUDY    40  22  49 W17G25    29.89R
RUTLAND*       CLOUDY    36  18  48 NW15G28   29.86R
SPRINGFIELD    SUNNY     40  17  39 NW13G25   29.80R
HIGHGATE*      FAIR      42  23  46 NW8G22    29.90S
NEWPORT*       CLOUDY    34  23  64 NW15G24   29.81R
BENNINGTON     SUNNY     40  15  36 NW10G25   29.85R
GALLUP MILLS*    N/A     21 N/A N/A MISG        N/A
UNION VILLAGE*   N/A     39 N/A N/A MISG        N/A
MT. MANSFIELD*   N/A     19 N/A N/A NW24G36     N/A  WCI   2

_____LAKE CHAMPLAIN_____


CITY           SKY/WX    TMP DP  RH WIND       PRES   REMARKS
BURTON ISLAND*   N/A     36  25  64 NW16        N/A
COLCHESTER RF*   N/A     37  25  60 NW22        N/A
DIAMOND ISL*     N/A     37  19  48 NW16        N/A

$$

NYZ007-026>031-035-052-083-241400-
_____NORTHERN NEW YORK_____


CITY           SKY/WX    TMP DP  RH WIND       PRES   REMARKS
PLATTSBURGH    CLOUDY    38  18  44 NW12G25   29.91R
SARANAC LAKE   MOSUNNY   31  17  56 NW8       29.90R
MASSENA        SUNNY     36  19  50 NW16      30.03R
OGDENSBURG*    SUNNY     39  19  45 NW13      30.04F
POTSDAM*       SUNNY     37  23  56 N9        30.03R
PARISHVILLE*     N/A     32 N/A N/A NW7         N/A
WATERTOWN        N/A     40  17  39 MISG      30.07R
FT DRUM        SUNNY     36  17  47 N10       30.04R
ALBANY         SUNNY     42  15  33 NW22G32   29.90S
GLENS FALLS    SUNNY     44  15  31 N21G30    29.90R

$$
NHZ002-005-011-241400-
_____NEW HAMPSHIRE_____


CITY           SKY/WX    TMP DP  RH WIND       PRES   REMARKS
LEBANON        MOSUNNY   40  18  41 NW14G33   29.78R
KEENE          SUNNY     41  16  36 N24G35    29.78S
MT WASHINGTON  FOG       12  12 100 NW60G76     N/A  VSB 0   WCI -15
PLYMOUTH         N/A     39  23  52 NW21G32   29.73R
WHITEFIELD     CLOUDY    35  24  64 NW12G23   29.76R

$$

_____REGIONAL QUEBEC LOCATIONS_____


CITY           SKY/WX    TMP DP  RH WIND       PRES   REMARKS
MONTREAL       MOSUNNY   39  21  48 W16       29.93R
QUEBEC CITY    PTSUNNY   41  28  60 NW14      29.76R
SHERBROOKE     PTSUNNY   36  23  60 NW18G29   29.77R

_____REGIONAL ONTARIO LOCATIONS_____


CITY           SKY/WX    TMP DP  RH WIND       PRES   REMARKS
OTTAWA         SUNNY     37  18  44 NW17G26   30.04R

______KEY______
VSB  - VISIBILITY IN MILES
WCI  - WIND CHILL INDEX
HX   - HEAT INDEX
$$



USA.gov is the U.S. government's official web portal to all federal, state and local government web resources and services.